DATCR LFKC-EVRA

Flight info

Callsign DATCR
Flight time 2h 39m
Altitude 38000
Route MEGER DCT BAPLU DCT BRENO/N0451F390 DCT BIBAG N871 BEPAS DCT TOMTI P733 NIKMI M994 GOMED DCT ASKOR
Aircraft CL60/M-SBDE1E2E3FGHIJ1J4J5J7M3RWXYZ/LB1V1D1

Departure

Time 2026-04-24 16:42
Airport Calvi Sainte Catherine Airport (LFKC)

Arrival

Time 2026-04-24 19:21
Airport Riga International Airport (EVRA)
Time Latitude Longitude Altitude Speed Heading
2026-04-24 16:00 42.52272 8.79136 207 ft 0 kts 181°
2026-04-24 16:40 42.52265 8.79135 208 ft 2 kts 180°
2026-04-24 16:40 42.52246 8.79157 209 ft 4 kts 97°
2026-04-24 16:40 42.52244 8.79188 208 ft 4 kts 96°
2026-04-24 16:40 42.52242 8.79228 209 ft 5 kts 87°
2026-04-24 16:41 42.52245 8.79271 209 ft 3 kts 84°
2026-04-24 16:41 42.52268 8.79304 208 ft 7 kts 358°
2026-04-24 16:41 42.52290 8.79302 208 ft 4 kts 359°
2026-04-24 16:41 42.52470 8.79302 200 ft 75 kts
2026-04-24 16:42 42.53349 8.79294 200 ft 166 kts 360°
2026-04-24 16:42 42.54594 8.79261 865 ft 194 kts 358°
2026-04-24 16:42 42.55997 8.79242 1690 ft 217 kts 359°
2026-04-24 16:42 42.57584 8.79236 2397 ft 245 kts 358°
2026-04-24 16:43 42.59379 8.79230 2930 ft 263 kts 359°
2026-04-24 16:43 42.61209 8.79235 3503 ft 264 kts
2026-04-24 16:43 42.62988 8.79867 4057 ft 268 kts 31°
2026-04-24 16:43 42.64305 8.81654 4623 ft 271 kts 51°
2026-04-24 16:44 42.65439 8.83670 5212 ft 271 kts 51°
2026-04-24 16:44 42.66611 8.85707 5825 ft 272 kts 50°
2026-04-24 16:44 42.67787 8.87700 6427 ft 273 kts 50°
2026-04-24 16:44 42.68988 8.89690 7034 ft 274 kts 49°
2026-04-24 16:45 42.70203 8.91661 7640 ft 273 kts 49°
2026-04-24 16:45 42.71433 8.93621 8239 ft 276 kts 48°
2026-04-24 16:45 42.72707 8.95614 8859 ft 278 kts 47°
2026-04-24 16:45 42.73988 8.97589 9487 ft 279 kts 47°
2026-04-24 16:46 42.75264 8.99529 10098 ft 281 kts 46°
2026-04-24 16:46 42.76592 9.01529 10775 ft 289 kts 46°
2026-04-24 16:46 42.77975 9.03597 11485 ft 303 kts 46°
2026-04-24 16:46 42.79410 9.05734 12247 ft 309 kts 46°
2026-04-24 16:47 42.80858 9.07885 13044 ft 313 kts 46°
2026-04-24 16:47 42.82323 9.10055 13739 ft 318 kts 46°
2026-04-24 16:47 42.83835 9.12292 14060 ft 321 kts 46°
2026-04-24 16:47 42.85351 9.14533 14119 ft 320 kts 46°
2026-04-24 16:48 42.86856 9.16755 14114 ft 317 kts 46°
2026-04-24 16:48 42.88388 9.18915 14123 ft 316 kts 39°
2026-04-24 16:48 42.90287 9.20443 14107 ft 315 kts 19°
2026-04-24 16:48 42.92433 9.20947 14116 ft 318 kts
2026-04-24 16:49 42.94653 9.20791 14105 ft 319 kts 357°
2026-04-24 16:49 42.96873 9.20594 14113 ft 319 kts 358°
2026-04-24 16:49 42.99077 9.20404 14106 ft 319 kts 358°
2026-04-24 16:49 43.01291 9.20214 14114 ft 319 kts 358°
2026-04-24 16:50 43.02785 9.20086 14115 ft 319 kts 358°
2026-04-24 16:50 43.05727 9.19836 14116 ft 319 kts 358°
2026-04-24 16:50 43.07966 9.19646 14114 ft 318 kts 358°
2026-04-24 16:50 43.10169 9.19459 14109 ft 318 kts 358°
2026-04-24 16:51 43.12377 9.19272 14104 ft 318 kts 358°
2026-04-24 16:51 43.14601 9.19084 14110 ft 319 kts 358°
2026-04-24 16:51 43.16819 9.18897 14110 ft 319 kts 358°
2026-04-24 16:51 43.19016 9.18726 14106 ft 319 kts
2026-04-24 16:52 43.21186 9.19231 14110 ft 317 kts 20°
2026-04-24 16:52 43.23242 9.20292 14204 ft 315 kts 21°
2026-04-24 16:52 43.25279 9.21341 14503 ft 315 kts 21°
2026-04-24 16:52 43.27342 9.22401 14809 ft 319 kts 21°
2026-04-24 16:53 43.29429 9.23476 15127 ft 321 kts 21°
2026-04-24 16:53 43.31530 9.24558 15445 ft 323 kts 21°
2026-04-24 16:53 43.33637 9.25645 15766 ft 325 kts 21°
2026-04-24 16:53 43.35749 9.26735 16093 ft 326 kts 21°
2026-04-24 16:54 43.37880 9.27835 16416 ft 328 kts 21°
2026-04-24 16:54 43.40023 9.28943 16744 ft 330 kts 22°
2026-04-24 16:54 43.42177 9.30058 17075 ft 332 kts 22°
2026-04-24 16:54 43.44347 9.31182 17413 ft 333 kts 22°
2026-04-24 16:55 43.46506 9.32301 17748 ft 335 kts 22°
2026-04-24 16:55 43.48688 9.33433 18085 ft 337 kts 22°
2026-04-24 16:55 43.50896 9.34579 18430 ft 339 kts 22°
2026-04-24 16:55 43.53079 9.35713 18780 ft 340 kts 22°
2026-04-24 16:56 43.55309 9.36873 19135 ft 342 kts 22°
2026-04-24 16:56 43.57545 9.38037 19488 ft 344 kts 22°
2026-04-24 16:56 43.59767 9.39195 19846 ft 346 kts 22°
2026-04-24 16:56 43.62015 9.40367 20205 ft 348 kts 22°
2026-04-24 16:57 43.64289 9.41553 20568 ft 350 kts 22°
2026-04-24 16:57 43.66566 9.42742 20937 ft 352 kts 22°
2026-04-24 16:57 43.68853 9.43937 21312 ft 354 kts 22°
2026-04-24 16:57 43.71170 9.45150 21691 ft 356 kts 22°
2026-04-24 16:58 43.73482 9.46360 22073 ft 358 kts 22°
2026-04-24 16:58 43.75811 9.47580 22459 ft 359 kts 22°
2026-04-24 16:58 43.78149 9.48805 22846 ft 362 kts 22°
2026-04-24 16:58 43.80509 9.50044 23237 ft 364 kts 22°
2026-04-24 16:59 43.82866 9.51282 23630 ft 367 kts 22°
2026-04-24 16:59 43.85296 9.52560 24037 ft 370 kts 22°
2026-04-24 16:59 43.90152 9.55116 24861 ft 374 kts 22°
2026-04-24 17:00 43.92593 9.56403 25279 ft 376 kts 22°
2026-04-24 17:00 43.97545 9.59016 26136 ft 380 kts 22°
2026-04-24 17:00 44.00019 9.60324 26567 ft 383 kts 22°
2026-04-24 17:01 44.04948 9.62933 27434 ft 387 kts 22°
2026-04-24 17:01 44.07477 9.64273 27883 ft 390 kts 22°
2026-04-24 17:02 44.12507 9.66942 28797 ft 394 kts 24°
2026-04-24 17:02 44.15132 9.68337 29283 ft 397 kts 24°
2026-04-24 17:02 44.17578 9.69639 29739 ft 400 kts 23°
2026-04-24 17:02 44.20176 9.71022 30227 ft 403 kts 23°
2026-04-24 17:03 44.25465 9.73842 31235 ft 407 kts 23°
2026-04-24 17:03 44.28118 9.75258 31741 ft 409 kts 23°
2026-04-24 17:03 44.30751 9.76665 32236 ft 410 kts 23°
2026-04-24 17:04 44.33414 9.78090 32735 ft 410 kts 23°
2026-04-24 17:04 44.38753 9.80950 33705 ft 410 kts 23°
2026-04-24 17:04 44.41410 9.82376 34170 ft 409 kts 23°
2026-04-24 17:05 44.44054 9.83795 34666 ft 408 kts 23°
2026-04-24 17:05 44.46706 9.85222 35154 ft 408 kts 23°
2026-04-24 17:05 44.51975 9.88059 36081 ft 406 kts 22°
2026-04-24 17:06 44.54602 9.89476 36522 ft 405 kts 22°
2026-04-24 17:06 44.59830 9.92300 37359 ft 403 kts 22°
2026-04-24 17:06 44.62442 9.93713 37743 ft 402 kts 22°
2026-04-24 17:07 44.64187 9.94657 37982 ft 401 kts 22°
2026-04-24 17:07 44.67661 9.96541 38061 ft 409 kts 22°
2026-04-24 17:07 44.73038 9.99461 38063 ft 421 kts 22°
2026-04-24 17:08 44.78565 10.02467 38039 ft 432 kts 22°
2026-04-24 17:08 44.84227 10.05552 38034 ft 441 kts 22°
2026-04-24 17:09 44.95795 10.11874 38021 ft 448 kts 22°
2026-04-24 17:10 45.07383 10.18233 38018 ft 446 kts 22°
2026-04-24 17:12 45.30377 10.31756 38031 ft 446 kts 24°
2026-04-24 18:54 55.60196 21.36911 30918 ft 411 kts 34°
2026-04-24 18:55 55.64457 21.43517 30021 ft 403 kts 34°
2026-04-24 18:55 55.66543 21.46758 29561 ft 403 kts 34°
2026-04-24 18:55 55.68637 21.50016 29121 ft 399 kts 35°
2026-04-24 18:56 55.70707 21.53242 28673 ft 397 kts 35°
2026-04-24 18:56 55.72764 21.56451 28259 ft 393 kts 35°
2026-04-24 18:56 55.74799 21.59629 27803 ft 391 kts 35°
2026-04-24 18:56 55.76815 21.62782 27388 ft 387 kts 35°
2026-04-24 18:57 55.78851 21.65970 26962 ft 385 kts 36°
2026-04-24 18:57 55.80788 21.69009 26550 ft 383 kts 36°
2026-04-24 18:57 55.82777 21.72132 26128 ft 380 kts 36°
2026-04-24 18:57 55.84737 21.75217 25714 ft 377 kts 36°
2026-04-24 18:58 55.86684 21.78282 25302 ft 375 kts 36°
2026-04-24 18:58 55.88617 21.81332 24886 ft 372 kts 36°
2026-04-24 18:58 55.90535 21.84361 24478 ft 369 kts 37°
2026-04-24 18:58 55.92451 21.87393 24069 ft 367 kts 36°
2026-04-24 18:59 55.94342 21.90390 23662 ft 364 kts 37°
2026-04-24 18:59 55.96208 21.93351 23256 ft 361 kts 36°
2026-04-24 18:59 55.98076 21.96321 22867 ft 358 kts 36°
2026-04-24 18:59 55.99925 21.99262 22469 ft 356 kts 36°
2026-04-24 19:00 56.01767 22.02197 22062 ft 353 kts 36°
2026-04-24 19:00 56.03589 22.05103 21673 ft 352 kts 36°
2026-04-24 19:00 56.05406 22.08007 21281 ft 350 kts 36°
2026-04-24 19:00 56.07211 22.10894 20895 ft 348 kts 36°
2026-04-24 19:01 56.09002 22.13762 20518 ft 345 kts 36°
2026-04-24 19:01 56.10784 22.16621 20137 ft 343 kts 36°
2026-04-24 19:01 56.12543 22.19446 19762 ft 341 kts 36°
2026-04-24 19:01 56.14315 22.22296 19382 ft 338 kts 36°
2026-04-24 19:02 56.15480 22.24171 19134 ft 337 kts 36°
2026-04-24 19:02 56.17771 22.27864 18642 ft 334 kts 36°
2026-04-24 19:02 56.19515 22.30678 18272 ft 332 kts 36°
2026-04-24 19:02 56.21205 22.33409 17909 ft 329 kts 36°
2026-04-24 19:03 56.22912 22.36171 17538 ft 326 kts 36°
2026-04-24 19:03 56.24586 22.38880 17182 ft 324 kts 36°
2026-04-24 19:03 56.26222 22.41575 16831 ft 323 kts 39°
2026-04-24 19:03 56.27524 22.44894 16466 ft 329 kts 55°
2026-04-24 19:04 56.28629 22.48521 16114 ft 327 kts 55°
2026-04-24 19:04 56.29712 22.52049 15779 ft 325 kts 55°
2026-04-24 19:04 56.30804 22.55608 15434 ft 323 kts 55°
2026-04-24 19:04 56.31895 22.59164 15093 ft 321 kts 55°
2026-04-24 19:05 56.32959 22.62641 14764 ft 318 kts 55°
2026-04-24 19:05 56.34010 22.66109 14431 ft 316 kts 56°
2026-04-24 19:05 56.35057 22.69584 14083 ft 314 kts 56°
2026-04-24 19:05 56.36097 22.73046 13781 ft 312 kts 56°
2026-04-24 19:06 56.37125 22.76474 13502 ft 310 kts 56°
2026-04-24 19:06 56.38148 22.79884 13226 ft 308 kts 56°
2026-04-24 19:06 56.39164 22.83273 12954 ft 306 kts 56°
2026-04-24 19:06 56.40167 22.86629 12711 ft 304 kts 56°
2026-04-24 19:07 56.41161 22.89952 12465 ft 302 kts 56°
2026-04-24 19:07 56.42163 22.93306 12214 ft 301 kts 56°
2026-04-24 19:07 56.42813 22.95491 12049 ft 299 kts 56°
2026-04-24 19:07 56.44119 22.99884 11706 ft 297 kts 56°
2026-04-24 19:08 56.45089 23.03153 11460 ft 295 kts 56°
2026-04-24 19:08 56.46057 23.06421 11186 ft 295 kts 56°
2026-04-24 19:08 56.47022 23.09681 10805 ft 293 kts 56°
2026-04-24 19:08 56.47976 23.12909 10431 ft 290 kts 56°
2026-04-24 19:09 56.48911 23.16058 10060 ft 286 kts 56°
2026-04-24 19:09 56.49860 23.19258 9682 ft 284 kts 56°
2026-04-24 19:09 56.50783 23.22360 9315 ft 282 kts 56°
2026-04-24 19:09 56.51709 23.25472 8935 ft 280 kts 56°
2026-04-24 19:10 56.52629 23.28568 8556 ft 278 kts 56°
2026-04-24 19:10 56.53550 23.31655 8177 ft 276 kts 56°
2026-04-24 19:10 56.54424 23.34585 7815 ft 275 kts 56°
2026-04-24 19:10 56.55320 23.37583 7443 ft 273 kts 56°
2026-04-24 19:11 56.56221 23.40587 7114 ft 270 kts 56°
2026-04-24 19:11 56.57121 23.43595 6796 ft 270 kts 56°
2026-04-24 19:11 56.58018 23.46577 6429 ft 269 kts 56°
2026-04-24 19:11 56.58910 23.49534 6162 ft 265 kts 56°
2026-04-24 19:12 56.59795 23.52465 5916 ft 265 kts 56°
2026-04-24 19:12 56.60705 23.55448 5688 ft 276 kts 55°
2026-04-24 19:12 56.61666 23.58441 5386 ft 278 kts 54°
2026-04-24 19:12 56.62641 23.61479 5163 ft 274 kts 55°
2026-04-24 19:13 56.63286 23.63463 4976 ft 271 kts 54°
2026-04-24 19:13 56.64540 23.67336 4650 ft 262 kts 55°
2026-04-24 19:13 56.65472 23.70146 4429 ft 256 kts 54°
2026-04-24 19:13 56.66367 23.72823 4205 ft 248 kts 55°
2026-04-24 19:14 56.67258 23.75508 3843 ft 248 kts 54°
2026-04-24 19:14 56.68160 23.78154 3515 ft 247 kts 54°
2026-04-24 19:14 56.69017 23.80819 3225 ft 247 kts 56°
2026-04-24 19:14 56.69878 23.83480 2966 ft 240 kts 54°
2026-04-24 19:15 56.70792 23.85944 2647 ft 229 kts 50°
2026-04-24 19:15 56.71664 23.88007 2617 ft 184 kts 45°
2026-04-24 19:15 56.72535 23.89667 2465 ft 179 kts 37°
2026-04-24 19:15 56.73462 23.91080 2395 ft 168 kts 34°
2026-04-24 19:16 56.75132 23.93192 2224 ft 139 kts 23°
2026-04-24 19:16 56.76017 23.93893 2135 ft 136 kts 15°
2026-04-24 19:16 56.76850 23.94348 2115 ft 114 kts
2026-04-24 19:17 56.77640 23.94647 2028 ft 110 kts
2026-04-24 19:17 56.78422 23.94834 1876 ft 110 kts
2026-04-24 19:17 56.79174 23.94943 1677 ft 116 kts 359°
2026-04-24 19:17 56.79964 23.95053 1631 ft 110 kts
2026-04-24 19:18 56.80740 23.95190 1494 ft 113 kts
2026-04-24 19:18 56.81517 23.95341 1409 ft 110 kts
2026-04-24 19:18 56.82342 23.95480 1403 ft 118 kts
2026-04-24 19:18 56.83163 23.95593 1331 ft 122 kts
2026-04-24 19:19 56.83984 23.95719 1227 ft 118 kts
2026-04-24 19:19 56.84794 23.95852 1113 ft 114 kts
2026-04-24 19:19 56.85595 23.96007 971 ft 116 kts
2026-04-24 19:19 56.86449 23.96142 951 ft 117 kts
2026-04-24 19:20 56.87265 23.96262 815 ft 128 kts
2026-04-24 19:20 56.88123 23.96421 682 ft 119 kts
2026-04-24 19:20 56.88947 23.96547 501 ft 117 kts
2026-04-24 19:20 56.89767 23.96690 277 ft 117 kts
2026-04-24 19:21 56.90585 23.96823 113 ft 115 kts
2026-04-24 19:21 56.91350 23.96951 39 ft 102 kts
2026-04-24 19:21 56.91866 23.97042 37 ft 48 kts
2026-04-24 19:21 56.92185 23.97093 37 ft 37 kts
2026-04-24 19:22 56.92350 23.97138 37 ft 32 kts 21°
2026-04-24 19:22 56.92490 23.97288 37 ft 10 kts 34°
2026-04-24 19:22 56.92535 23.97345 38 ft 9 kts 36°
2026-04-24 19:22 56.92577 23.97398 38 ft 5 kts 35°
2026-04-24 19:23 56.92596 23.97423 38 ft 3 kts 37°
2026-04-24 19:23 56.92614 23.97471 38 ft 5 kts 89°
2026-04-24 19:23 56.92580 23.97546 38 ft 10 kts 181°
2026-04-24 19:23 56.92511 23.97534 38 ft 9 kts 186°
2026-04-24 19:24 56.92442 23.97523 38 ft 11 kts 185°
2026-04-24 19:24 56.92352 23.97502 38 ft 14 kts 188°
2026-04-24 19:24 56.92269 23.97486 38 ft 12 kts 185°
2026-04-24 19:24 56.92168 23.97471 38 ft 15 kts 184°
2026-04-24 19:25 56.92055 23.97451 38 ft 17 kts 185°
2026-04-24 19:25 56.91981 23.97457 38 ft 12 kts 145°
2026-04-24 19:25 56.91960 23.97591 39 ft 8 kts 95°
2026-04-24 19:25 56.91954 23.97706 39 ft 6 kts 103°
2026-04-24 19:26 56.91917 23.97739 39 ft 5 kts 198°
2026-04-24 19:26 56.91907 23.97678 39 ft 2 kts 274°
2026-04-24 19:26 56.91909 23.97638 39 ft 2 kts 274°
2026-04-24 19:26 56.91910 23.97634 39 ft 0 kts 274°